User: anonymous   Login
Location: Irma
(52.9170°N, 111.2330°W)
Time: 07:00:43
(UTC-06:00)
Language:

deb Chang Zheng 4 - Orbit

View from above orbital plane
View from above orbital plane
View from above satellite
View from above satellite

Ground track
Ground track

The orbit data is extracted from the following two-line orbital elements,

1 20847U 90081K   17231.15847249  .00001789  00000-0  24050-3 0  9992
2 20847  98.5253 119.2300 0015158 224.8487 135.1499 14.80608772415124
Epoch (UTC): 19 August 2017 03:48:12
Eccentricity: 0.0015158
inclination: 98.5253°
perigee height: 617 km
apogee height: 638 km
right ascension of ascending node: 119.2300°
argument of perigee: 224.8487°
revolutions per day: 14.80608772
mean anomaly at epoch: 135.1499°
orbit number at epoch: 41512

The dashed part of the orbit path shows where the satellite is in the earth's shadow,  

DLR